Franktown, CO

5:01 PM MDT on August 29, 2016 (GMT -0600)
Monument Pass

Weather History for KMNH - September, 2013

Change the Weather History Date:

Wednesday, September 25, 2013

  Actual Average Record
Temperature  
Mean Temperature 57 °F -  
Max Temperature 73 °F - 78 °F (2001)
Min Temperature 41 °F - 32 °F (2007)
Degree Days  
Heating Degree Days 8    
Month to date heating degree days  
Cooling Degree Days 0    
Month to date cooling degree days  
Growing Degree Days 7 (Base 50)    
Moisture  
Dew Point 28 °F    
Average Humidity 32    
Maximum Humidity 76    
Minimum Humidity 15    
Precipitation  
Precipitation 0.00 in - 0.75 in (2012)
Sea Level Pressure  
Sea Level Pressure 29.83 in    
Wind  
Wind Speed 12 mph (SSW)    
Max Wind Speed 25 mph    
Max Gust Speed 36 mph    
Visibility 10 miles    
Events      
T = Trace of Precipitation, MM = Missing Value Source: NWS Daily Summary

Daily Weather History Graph

Daily Weather History Graph

Search for Another Location

Airport or City:

Trip Planner

Search our weather history database for the weather conditions in past years. The results will help you decide how hot, cold, wet, or windy it might be!

Date:

Astronomy

Sep. 25, 2013 Rise Set
Actual Time 6:49 AM MDT 6:50 PM MDT
Civil Twilight 6:22 AM MDT 7:16 PM MDT
Nautical Twilight 5:51 AM MDT 7:48 PM MDT
Astronomical Twilight 5:19 AM MDT 8:19 PM MDT
Moon 11:00 PM MDT (9/25) 12:54 PM MDT (9/25)
Length of Visible Light 12h 54m
Length of Day
12h 00m
Waning Gibbous, 63% of the Moon is Illuminated
Sep 25
Waning Gibbous
Sep 26
Last Quarter
Oct 4
New
Oct 11
First Quarter
Oct 18
Full

Hourly Weather History & Observations

Time (MDT) Temp. Windchill Dew Point Humidity Pressure Visibility Wind Dir Wind Speed Gust Speed Precip Events Conditions
12:13 AM 51.8 °F - 35.6 °F 54% 30.01 in 10.0 mi South 13.8 mph - N/A   Clear
12:33 AM 50.0 °F - 35.6 °F 58% 30.01 in 10.0 mi South 13.8 mph - N/A   Clear
12:53 AM 46.4 °F 41.9 °F 35.6 °F 66% 30.00 in 10.0 mi South 9.2 mph - N/A   Clear
1:13 AM 48.2 °F - 35.6 °F 62% 29.99 in 10.0 mi SSW 5.8 mph - N/A   Clear
1:33 AM 46.4 °F 42.4 °F 35.6 °F 66% 29.99 in 10.0 mi SW 8.1 mph - N/A   Clear
1:53 AM 46.4 °F 41.1 °F 35.6 °F 66% 29.98 in 10.0 mi South 11.5 mph - N/A   Clear
2:13 AM 46.4 °F 41.9 °F 35.6 °F 66% 29.97 in 10.0 mi South 9.2 mph - N/A   Clear
2:33 AM 44.6 °F 39.7 °F 33.8 °F 66% 29.97 in 10.0 mi South 9.2 mph - N/A   Clear
2:53 AM 42.8 °F 38.0 °F 33.8 °F 70% 29.97 in 10.0 mi SSW 8.1 mph - N/A   Clear
3:12 AM 41.0 °F 36.4 °F 33.8 °F 76% 29.97 in 10.0 mi South 6.9 mph - N/A   Clear
3:32 AM 44.6 °F 41.4 °F 32.0 °F 61% 29.96 in 10.0 mi South 5.8 mph - N/A   Clear
3:51 AM 42.8 °F 40.1 °F 32.0 °F 66% 29.95 in 10.0 mi SW 4.6 mph - N/A   Clear
4:13 AM 53.6 °F - 23.0 °F 30% 29.95 in 10.0 mi South 4.6 mph - N/A   Clear
4:33 AM 53.6 °F - 23.0 °F 30% 29.94 in 10.0 mi ESE 3.5 mph - N/A   Clear
4:53 AM 53.6 °F - 19.4 °F 26% 29.94 in 10.0 mi West 3.5 mph - N/A   Clear
5:13 AM 59.0 °F - 17.6 °F 20% 29.93 in 10.0 mi SSW 8.1 mph - N/A   Clear
5:33 AM 55.4 °F - 17.6 °F 23% 29.92 in 10.0 mi SSW 8.1 mph - N/A   Clear
5:53 AM 51.8 °F - 21.2 °F 30% 29.92 in 10.0 mi West 4.6 mph - N/A   Clear
6:13 AM 53.6 °F - 21.2 °F 28% 29.92 in 10.0 mi South 5.8 mph - N/A   Clear
6:33 AM 55.4 °F - 21.2 °F 26% 29.92 in 10.0 mi South 3.5 mph - N/A   Clear
6:53 AM 51.8 °F - 23.0 °F 33% 29.91 in 10.0 mi SSE 6.9 mph - N/A   Clear
7:13 AM 50.0 °F - 28.4 °F 43% 29.91 in 10.0 mi SSE 3.5 mph - N/A   Clear
7:33 AM 59.0 °F - 24.8 °F 27% 29.91 in 10.0 mi SW 15.0 mph - N/A   Clear
7:53 AM 60.8 °F - 24.8 °F 25% 29.90 in 10.0 mi WSW 19.6 mph 26.5 mph N/A   Clear
8:13 AM 62.6 °F - 26.6 °F 26% 29.89 in 10.0 mi WSW 18.4 mph 25.3 mph N/A   Clear
8:33 AM 62.6 °F - 28.4 °F 27% 29.90 in 10.0 mi WSW 13.8 mph - N/A   Clear
8:53 AM 64.4 °F - 28.4 °F 26% 29.90 in 10.0 mi WSW 12.7 mph 19.6 mph N/A   Clear
9:13 AM 64.4 °F - 28.4 °F 26% 29.90 in 10.0 mi WSW 17.3 mph 23.0 mph N/A   Clear
9:33 AM 66.2 °F - 28.4 °F 24% 29.89 in 10.0 mi WSW 13.8 mph 19.6 mph N/A   Clear
9:53 AM 68.0 °F - 26.6 °F 21% 29.89 in 10.0 mi SW 13.8 mph 19.6 mph N/A   Clear
10:13 AM 68.0 °F - 28.4 °F 23% 29.89 in 10.0 mi SW 10.4 mph 18.4 mph N/A   Clear
10:32 AM 68.0 °F - 26.6 °F 21% 29.88 in 10.0 mi SW 13.8 mph 20.7 mph N/A   Clear
10:52 AM 69.8 °F - 24.8 °F 18% 29.87 in 10.0 mi SSW 16.1 mph 24.2 mph N/A   Clear
11:12 AM 69.8 °F - 23.0 °F 17% 29.86 in 10.0 mi SW 16.1 mph 21.9 mph N/A   Clear
11:33 AM 69.8 °F - 26.6 °F 20% 29.85 in 10.0 mi SW 12.7 mph 18.4 mph N/A   Clear
11:53 AM 71.6 °F - 32.0 °F 23% 29.84 in 10.0 mi South 16.1 mph 20.7 mph N/A   Clear
12:12 PM 69.8 °F - 32.0 °F 25% 29.83 in 10.0 mi South 12.7 mph 21.9 mph N/A   Clear
12:33 PM 71.6 °F - 32.0 °F 23% 29.82 in 10.0 mi SSE 17.3 mph 23.0 mph N/A   Clear
12:53 PM 71.6 °F - 32.0 °F 23% 29.81 in 10.0 mi SSW 20.7 mph 32.2 mph N/A   Clear
1:13 PM 71.6 °F - 28.4 °F 20% 29.79 in 10.0 mi South 23.0 mph 26.5 mph N/A   Clear
1:33 PM 71.6 °F - 30.2 °F 22% 29.78 in 10.0 mi South 18.4 mph 31.1 mph N/A   Clear
1:53 PM 71.6 °F - 30.2 °F 22% 29.76 in 10.0 mi South 23.0 mph 33.4 mph N/A   Clear
2:12 PM 73.4 °F - 23.0 °F 15% 29.75 in 10.0 mi SW 20.7 mph 35.7 mph N/A   Clear
2:32 PM 73.4 °F - 24.8 °F 16% 29.75 in 10.0 mi SW 23.0 mph 34.5 mph N/A   Clear
2:53 PM 73.4 °F - 26.6 °F 18% 29.73 in 10.0 mi South 24.2 mph 32.2 mph N/A   Clear
3:13 PM 73.4 °F - 28.4 °F 19% 29.73 in 10.0 mi South 24.2 mph 29.9 mph N/A   Clear
3:33 PM 73.4 °F - 28.4 °F 19% 29.73 in 10.0 mi South 24.2 mph 28.8 mph N/A   Clear
3:53 PM 73.4 °F - 26.6 °F 18% 29.73 in 10.0 mi South 25.3 mph 31.1 mph N/A   Clear
4:13 PM 73.4 °F - 26.6 °F 18% 29.71 in 10.0 mi South 23.0 mph 29.9 mph N/A   Clear
4:33 PM 73.4 °F - 28.4 °F 19% 29.71 in 10.0 mi SSW 15.0 mph 21.9 mph N/A   Clear
4:52 PM 73.4 °F - 26.6 °F 18% 29.71 in 10.0 mi SSW 20.7 mph 26.5 mph N/A   Clear
5:13 PM 71.6 °F - 26.6 °F 19% 29.71 in 10.0 mi South 19.6 mph 25.3 mph N/A   Clear
5:33 PM 71.6 °F - 28.4 °F 20% 29.70 in 10.0 mi South 13.8 mph 26.5 mph N/A   Clear
5:53 PM 69.8 °F - 28.4 °F 21% 29.70 in 10.0 mi South 13.8 mph 20.7 mph N/A   Clear
6:13 PM 68.0 °F - 28.4 °F 23% 29.71 in 10.0 mi SSW 13.8 mph 18.4 mph N/A   Clear
6:33 PM 64.4 °F - 30.2 °F 28% 29.71 in 10.0 mi SSW 9.2 mph - N/A   Clear
6:53 PM 62.6 °F - 28.4 °F 27% 29.71 in 10.0 mi South 11.5 mph - N/A   Clear
7:13 PM 60.8 °F - 28.4 °F 29% 29.71 in 10.0 mi SSW 9.2 mph - N/A   Clear
7:33 PM 62.6 °F - 28.4 °F 27% 29.72 in 10.0 mi SW 10.4 mph - N/A   Clear
7:52 PM 60.8 °F - 30.2 °F 31% 29.73 in 10.0 mi SSW 8.1 mph - N/A   Clear
8:13 PM 60.8 °F - 26.6 °F 27% 29.73 in 10.0 mi SSW 9.2 mph - N/A   Clear
8:32 PM 60.8 °F - 28.4 °F 29% 29.74 in 10.0 mi SW 10.4 mph - N/A   Clear
8:53 PM 55.4 °F - 32.0 °F 41% 29.73 in 10.0 mi WSW 12.7 mph 17.3 mph N/A   Clear
9:13 PM 57.2 °F - 30.2 °F 36% 29.74 in 10.0 mi SW 13.8 mph 19.6 mph N/A   Clear
9:33 PM 60.8 °F - 28.4 °F 29% 29.73 in 10.0 mi SW 19.6 mph 27.6 mph N/A   Clear
9:53 PM 60.8 °F - 28.4 °F 29% 29.73 in 10.0 mi SSW 11.5 mph 25.3 mph N/A   Clear
10:13 PM 60.8 °F - 28.4 °F 29% 29.73 in 10.0 mi SSW 16.1 mph 23.0 mph N/A   Clear
10:33 PM 57.2 °F - 30.2 °F 36% 29.73 in 10.0 mi SSW 11.5 mph 21.9 mph N/A   Clear
10:53 PM 59.0 °F - 28.4 °F 31% 29.73 in 10.0 mi SSW 16.1 mph 23.0 mph N/A   Clear
11:13 PM 59.0 °F - 30.2 °F 34% 29.73 in 10.0 mi SSW 10.4 mph - N/A   Clear
11:33 PM 55.4 °F - 30.2 °F 38% 29.74 in 10.0 mi SSW 9.2 mph - N/A   Clear
11:53 PM 53.6 °F - 30.2 °F 41% 29.74 in 10.0 mi SSW 8.1 mph - N/A   Clear